Regional Weather Roundup
Issued by NWS State College, PA

Home | Current Version | Previous Version | Graphics & Text | Print | Product List | Glossary On
Versions: 1 2 3 4 5 6 7 8 9 10 11 12 13 14 15 16 17 18 19 20 21 22 23 24 25 26 27 28 29 30 31 32 33 34 35 36 37 38 39 40 41 42 43 44 45 46 47 48 49 50
490
ASUS41 KCTP 261810
RWRCTP

REGIONAL WEATHER ROUNDUP
NATIONAL WEATHER SERVICE STATE COLLEGE PA
200 PM EDT WED JUL 26 2017

Note: "fair" indicates few or no clouds below 12,000 feet with no
significant weather and/or obstructions to visibility.

* = STATION THAT DOES NOT REPORT PRECIPITATION /E.G. RAIN...SNOW...ETC/
    THUNDER OR FOG.

PAZ002>004-007>009-013>016-020>023-029>032-261900-
WESTERN PENNSYLVANIA

CITY           SKY/WX    TMP DP  RH WIND       PRES   REMARKS
ERIE           SUNNY     74  61  63 NW7       30.13F
MEADVILLE      CLOUDY    75  62  64 SW10      30.16F
FRANKLIN*      CLOUDY    75  61  60 S7        30.17F
NEW CASTLE     FAIR      79  61  53 VRB5      30.15F
BEAVER COUNTY  SUNNY     79  61  53 SE3       30.16F
BUTLER*        MOSUNNY   75  63  64 SE6       30.16F
PITTSBURGH INT PTSUNNY   77  60  55 VRB3      30.15F
PITTSBURGH     SUNNY     77  57  50 S10       30.15F
INDIANA*       MOSUNNY   77  64  65 VRB5      30.20F
LATROBE        MOSUNNY   79  61  53 SW5       30.17S
WASHINGTON CO* CLOUDY    77  61  57 E3        30.16F
$$

PAZ004>006-010>012-017>019-024>028-033>037-041-042-045-046-049>053-261900-
CENTRAL PENNSYLVANIA

CITY           SKY/WX    TMP DP  RH WIND       PRES   REMARKS
BRADFORD       MOSUNNY   72  59  63 S7        30.19F
DUBOIS         CLOUDY    74  57  55 VRB3      30.18F
CLEARFIELD     CLOUDY    76  58  53 VRB5      30.19F
JOHNSTOWN      MOSUNNY   72  58  61 SW3       30.21F
ALTOONA        CLOUDY    72  62  71 SE6       30.20F
STATE COLLEGE  PTSUNNY   72  59  64 S9        30.19F
WILLIAMSPORT   PTSUNNY   76  61  59 VRB3      30.17F
SELINSGROVE    CLOUDY    74  62  66 S6        30.19F
FT INDIANTOWN  PTSUNNY   75  64  68 CALM      30.19F
CAPITAL CITY   PTSUNNY   79  60  52 SW7       30.18F
HARRISBURG     PTSUNNY   80  63  55 CALM      30.17F
YORK           PTSUNNY   77  64  64 W5        30.18F
$$

PAZ038>040-043-044-047-048-054-055-060>062-067>071-261900-
EASTERN PENNSYLVANIA

CITY           SKY/WX    TMP DP  RH WIND       PRES   REMARKS
SCRANTON       CLOUDY    71  61  70 VRB7      30.21F
MOUNT POCONO   CLOUDY    66  60  81 SE7       30.25F
ALLENTOWN      PTSUNNY   74  61  63 W5        30.21F
QUAKERTOWN*    MOCLDY    73  63  68 W3        30.22F
READING        CLOUDY    77  65  66 VRB5      30.19F
LANCASTER      PTSUNNY   76  64  66 SE6       30.19F
COATESVILLE    MOCLDY    75  61  60 CALM      30.22F
POTTSTOWN      CLOUDY    73  64  73 NE5       30.22F
BLUE BELL      PTSUNNY   75  63  64 CALM      30.22F
DOYLESTOWN     PTSUNNY   73  62  68 VRB3      30.20F
WILLOW GROVE   NOT AVBL
NORTH PHILA    PTSUNNY   76  61  59 VRB6      30.22F
PHILADELPHIA   PTSUNNY   78  62  57 E8        30.20F
$$




USA.gov is the U.S. government's official web portal to all federal, state and local government web resources and services.